• In Hungary
  • List of Countries
  • For 7 days
  • Water Temperature
  • Satellite Maps
  • Weather Map
  • News
  • Weather Widgets
  • user-avatar
    Login

    Hourly Weather Bolshaya Rzhaksa

    Today, 24 October, Wednesday

    Time Temperature Precipitation Wind Pressure Humidity
    00:00 +4°C° 0 mm 4 mps 741 mmHg 71%
    01:00 +4°C° 0 mm 4 mps 741 mmHg 73%
    02:00 +4°C° 0 mm 4 mps 740 mmHg 74%
    03:00 +5°C° 0 mm 4 mps 739 mmHg 77%
    04:00 +5°C° 0 mm 5 mps 739 mmHg 78%
    05:00 +5°C° 0 mm 5 mps 738 mmHg 79%
    06:00 +5°C° 0 mm 5 mps 738 mmHg 80%
    07:00 +4°C° 0 mm 6 mps 738 mmHg 78%
    08:00 +5°C° 0 mm 6 mps 737 mmHg 75%
    09:00 +5°C° 0 mm 7 mps 737 mmHg 73%
    10:00 +8°C° 0 mm 7 mps 736 mmHg 69%
    11:00 +9°C° 0 mm 8 mps 736 mmHg 64%
    12:00 +10°C° 0 mm 8 mps 735 mmHg 60%
    13:00 +11°C° 0.2 mm 8 mps 734 mmHg 61%
    14:00 +11°C° 0.2 mm 8 mps 734 mmHg 62%
    15:00 +11°C° 0.2 mm 8 mps 733 mmHg 63%
    16:00 +11°C° 0.4 mm 8 mps 732 mmHg 65%
    17:00 +11°C° 0.4 mm 8 mps 731 mmHg 66%
    18:00 +11°C° 0.4 mm 9 mps 731 mmHg 68%
    19:00 +10°C° 0.7 mm 8 mps 731 mmHg 73%
    20:00 +10°C° 0.7 mm 8 mps 730 mmHg 78%
    21:00 +10°C° 0.7 mm 8 mps 730 mmHg 83%
    22:00 +9°C° 0.7 mm 7 mps 730 mmHg 84%
    23:00 +9°C° 0.7 mm 6 mps 730 mmHg 84%

    Tomorrow, 25 October, Thursday

    Time Temperature Precipitation Wind Pressure Humidity
    00:00 +8°C° 0.7 mm 5 mps 731 mmHg 85%
    01:00 +8°C° 0.1 mm 5 mps 731 mmHg 86%
    02:00 +8°C° 0.1 mm 4 mps 731 mmHg 87%
    03:00 +8°C° 0.1 mm 4 mps 731 mmHg 88%
    04:00 +8°C° 0 mm 3 mps 731 mmHg 90%
    05:00 +8°C° 0 mm 3 mps 730 mmHg 92%
    06:00 +8°C° 0 mm 3 mps 730 mmHg 94%
    07:00 +8°C° 0 mm 3 mps 730 mmHg 92%
    08:00 +8°C° 0 mm 3 mps 730 mmHg 89%
    09:00 +9°C° 0 mm 3 mps 731 mmHg 87%
    10:00 +9°C° 0 mm 3 mps 731 mmHg 82%
    11:00 +10°C° 0 mm 3 mps 731 mmHg 78%
    12:00 +10°C° 0 mm 3 mps 731 mmHg 73%
    13:00 +8°C° 1.3 mm 4 mps 731 mmHg 77%
    14:00 +7°C° 1.3 mm 4 mps 731 mmHg 80%
    15:00 +6°C° 1.3 mm 5 mps 731 mmHg 84%
    16:00 +6°C° 0.2 mm 4 mps 731 mmHg 83%
    17:00 +6°C° 0.2 mm 4 mps 731 mmHg 82%
    18:00 +6°C° 0.2 mm 4 mps 732 mmHg 81%
    19:00 +5°C° 0 mm 4 mps 732 mmHg 81%
    20:00 +5°C° 0 mm 4 mps 732 mmHg 80%
    21:00 +5°C° 0 mm 4 mps 733 mmHg 80%
    22:00 +5°C° 0 mm 4 mps 733 mmHg 81%
    23:00 +5°C° 0 mm 4 mps 733 mmHg 81%

    Day after tomorrow, 26 October, Friday

    Time Temperature Precipitation Wind Pressure Humidity
    00:00 +5°C° 0 mm 4 mps 734 mmHg 81%
    01:00 +4°C° 0.1 mm 4 mps 734 mmHg 83%
    02:00 +4°C° 0.1 mm 4 mps 734 mmHg 84%
    03:00 +4°C° 0.1 mm 4 mps 735 mmHg 85%
    04:00 +4°C° 0 mm 4 mps 735 mmHg 85%
    05:00 +3°C° 0 mm 4 mps 736 mmHg 84%
    06:00 +3°C° 0 mm 4 mps 736 mmHg 83%
    07:00 +3°C° 0 mm 4 mps 737 mmHg 81%
    08:00 +2°C° 0 mm 5 mps 738 mmHg 79%
    09:00 +2°C° 0 mm 5 mps 738 mmHg 77%
    10:00 +3°C° 0 mm 5 mps 739 mmHg 70%
    11:00 +5°C° 0 mm 5 mps 739 mmHg 64%
    12:00 +5°C° 0 mm 5 mps 739 mmHg 57%
    13:00 +5°C° 0 mm 5 mps 740 mmHg 57%
    14:00 +5°C° 0 mm 4 mps 740 mmHg 56%
    15:00 +5°C° 0 mm 4 mps 740 mmHg 56%
    16:00 +5°C° 0 mm 3 mps 740 mmHg 59%
    17:00 +5°C° 0 mm 3 mps 741 mmHg 62%
    18:00 +5°C° 0 mm 2 mps 741 mmHg 65%
    19:00 +5°C° 0 mm 2 mps 741 mmHg 67%
    20:00 +4°C° 0 mm 2 mps 742 mmHg 69%
    21:00 +4°C° 0 mm 2 mps 742 mmHg 71%
    22:00 +4°C° 0 mm 2 mps 742 mmHg 74%
    23:00 +3°C° 0 mm 2 mps 742 mmHg 77%

    27 October, Saturday

    Time Temperature Precipitation Wind Pressure Humidity
    00:00 +3°C° 0 mm 2 mps 742 mmHg 79%
    01:00 +2°C° 0 mm 3 mps 743 mmHg 82%
    02:00 +2°C° 0 mm 3 mps 743 mmHg 85%
    03:00 +1°C° 0 mm 3 mps 743 mmHg 87%
    04:00 +1°C° 0 mm 3 mps 744 mmHg 89%
    05:00 +1°C° 0 mm 3 mps 744 mmHg 91%
    06:00 0°C° 0 mm 4 mps 744 mmHg 94%
    07:00 +1°C° 0 mm 4 mps 745 mmHg 90%
    08:00 +3°C° 0 mm 4 mps 746 mmHg 86%
    09:00 +3°C° 0 mm 5 mps 746 mmHg 82%
    10:00 +3°C° 0 mm 5 mps 746 mmHg 76%
    11:00 +4°C° 0 mm 6 mps 746 mmHg 70%
    12:00 +5°C° 0 mm 6 mps 746 mmHg 63%
    13:00 +7°C° 0 mm 6 mps 746 mmHg 63%
    14:00 +6°C° 0 mm 7 mps 746 mmHg 63%
    15:00 +8°C° 0 mm 7 mps 745 mmHg 62%
    16:00 +8°C° 0 mm 7 mps 745 mmHg 64%
    17:00 +8°C° 0 mm 7 mps 744 mmHg 65%
    18:00 +7°C° 0 mm 8 mps 744 mmHg 67%
    19:00 +7°C° 0.1 mm 8 mps 743 mmHg 67%
    20:00 +7°C° 0.1 mm 9 mps 743 mmHg 68%
    21:00 +7°C° 0.1 mm 9 mps 742 mmHg 69%
    22:00 +8°C° 0.4 mm 9 mps 742 mmHg 71%
    23:00 +8°C° 0.4 mm 9 mps 743 mmHg 73%

    28 October, Sunday

    Time Temperature Precipitation Wind Pressure Humidity
    00:00 +9°C° 0.4 mm 8 mps 743 mmHg 75%
    01:00 +7°C° 0 mm 8 mps 743 mmHg 74%
    02:00 +7°C° 0 mm 8 mps 744 mmHg 74%
    03:00 +6°C° 0 mm 7 mps 744 mmHg 73%
    04:00 +5°C° 0 mm 7 mps 745 mmHg 73%
    05:00 +4°C° 0 mm 7 mps 746 mmHg 72%
    06:00 +4°C° 0 mm 7 mps 746 mmHg 72%
    07:00 +3°C° 0 mm 7 mps 747 mmHg 71%
    08:00 +3°C° 0 mm 7 mps 748 mmHg 70%
    09:00 +3°C° 0 mm 7 mps 749 mmHg 68%
    10:00 +4°C° 0 mm 7 mps 750 mmHg 65%
    11:00 +4°C° 0 mm 7 mps 751 mmHg 62%
    12:00 +5°C° 0 mm 6 mps 752 mmHg 59%
    13:00 +5°C° 0 mm 6 mps 752 mmHg 58%
    14:00 +6°C° 0 mm 5 mps 753 mmHg 57%
    15:00 +7°C° 0 mm 4 mps 753 mmHg 56%
    16:00 +7°C° 0 mm 3 mps 754 mmHg 59%
    17:00 +5°C° 0 mm 3 mps 754 mmHg 63%
    18:00 +5°C° 0 mm 2 mps 755 mmHg 66%
    19:00 +6°C° 0 mm 1 mps 755 mmHg 67%
    20:00 +6°C° 0 mm 1 mps 755 mmHg 67%
    21:00 +6°C° 0 mm 1 mps 756 mmHg 67%
    22:00 +6°C° 0 mm 1 mps 756 mmHg 67%
    23:00 +5°C° 0 mm 0 mps 756 mmHg 67%

    29 October, Monday

    Time Temperature Precipitation Wind Pressure Humidity
    00:00 +5°C° 0 mm 0 mps 756 mmHg 68%
    01:00 +5°C° 0.1 mm 0 mps 757 mmHg 69%
    02:00 +5°C° 0.1 mm 0 mps 757 mmHg 70%
    03:00 +5°C° 0.1 mm 0 mps 757 mmHg 71%
    04:00 +6°C° 0.3 mm 1 mps 757 mmHg 73%
    05:00 +6°C° 0.3 mm 1 mps 757 mmHg 75%
    06:00 +5°C° 0.3 mm 2 mps 757 mmHg 77%
    07:00 +5°C° 0.2 mm 2 mps 757 mmHg 78%
    08:00 +4°C° 0.2 mm 3 mps 757 mmHg 79%
    09:00 +4°C° 0.2 mm 3 mps 757 mmHg 80%
    10:00 +4°C° 0.3 mm 3 mps 757 mmHg 81%
    11:00 +4°C° 0.3 mm 4 mps 757 mmHg 82%
    12:00 +4°C° 0.3 mm 4 mps 757 mmHg 82%
    13:00 +4°C° 0.1 mm 4 mps 757 mmHg 82%
    14:00 +4°C° 0.1 mm 4 mps 756 mmHg 82%
    15:00 +4°C° 0.1 mm 4 mps 756 mmHg 83%
    16:00 +4°C° 0 mm 4 mps 756 mmHg 84%
    17:00 +4°C° 0 mm 4 mps 756 mmHg 85%
    18:00 +4°C° 0 mm 4 mps 756 mmHg 86%
    19:00 +4°C° 0 mm 4 mps 756 mmHg 87%
    20:00 +4°C° 0 mm 4 mps 756 mmHg 87%
    21:00 +4°C° 0 mm 4 mps 756 mmHg 88%
    22:00 +4°C° 0 mm 4 mps 756 mmHg 88%
    23:00 +4°C° 0 mm 4 mps 756 mmHg 88%

    30 October, Tuesday

    Time Temperature Precipitation Wind Pressure Humidity
    00:00 +4°C° 0 mm 4 mps 757 mmHg 89%
    01:00 +4°C° 0 mm 4 mps 757 mmHg 90%
    02:00 +4°C° 0 mm 4 mps 757 mmHg 91%
    03:00 +4°C° 0 mm 4 mps 757 mmHg 92%
    04:00 +4°C° 0 mm 4 mps 757 mmHg 92%
    05:00 +4°C° 0 mm 4 mps 757 mmHg 93%
    06:00 +3°C° 0 mm 5 mps 757 mmHg 93%
    07:00 +3°C° 0 mm 5 mps 757 mmHg 92%
    08:00 +5°C° 0 mm 5 mps 757 mmHg 90%
    09:00 +5°C° 0 mm 5 mps 757 mmHg 88%
    10:00 +6°C° 0 mm 5 mps 757 mmHg 84%
    11:00 +8°C° 0 mm 6 mps 757 mmHg 79%
    12:00 +9°C° 0 mm 6 mps 757 mmHg 75%
    13:00 +9°C° 0 mm 5 mps 757 mmHg 74%
    14:00 +10°C° 0 mm 5 mps 757 mmHg 72%
    15:00 +10°C° 0 mm 5 mps 757 mmHg 71%
    16:00 +9°C° 0 mm 5 mps 757 mmHg 74%
    17:00 +9°C° 0 mm 6 mps 757 mmHg 77%
    18:00 +8°C° 0 mm 6 mps 757 mmHg 80%
    19:00 +8°C° 0 mm 6 mps 758 mmHg 80%
    20:00 +7°C° 0 mm 6 mps 758 mmHg 81%
    21:00 +7°C° 0 mm 6 mps 758 mmHg 82%
    22:00 +7°C° 0 mm 6 mps 758 mmHg 83%
    23:00 +5°C° 0 mm 6 mps 759 mmHg 84%
    Show more